Location: Bryzozowice
(50.3667°N, 18.9667°E)
Time: 19:51:05
(UTC+00:00)

Cosmos 724 - Pass Details

Date: 24 January 2020
Orbit: 864 x 931 km, 65.6° (Epoch: 21 February)

Event Time Altitude Azimuth Distance (km) Brightness Sun altitude
Rises 16:12:54 0° 203° (SSW) 3,508 8.1 -8.1°
Reaches altitude 10° 16:15:27 10° 199° (SSW) 2,561 7.3 -8.5°
Maximum altitude 16:21:15 58° 122° (ESE) 1,022 4.5 -9.3°
Drops below altitude 10° 16:27:00 10° 45° (NE) 2,534 6.1 -10.2°
Enters shadow 16:27:12 - 44° (NE) 2,609 6.2 -10.2°
